| time (UTC) | temp F | wind direction | speed MPH | gust MPH | rain 1hr in | rain 24hr in | rain mn in | humidity % | barometer mb |
| 20260505035212 | 52 | 68 | 5.0 | 5.0 | 0.11 | 0.00 | 0.78 | 96 | 1011.0 |
| 20260505034609 | 51 | 159 | 4.0 | 4.0 | 0.07 | 0.00 | 0.76 | 96 | 1011.0 |
| 20260505034447 | 51 | 36 | 4.0 | 4.0 | 0.13 | 0.00 | 0.76 | 96 | 1011.0 |
| 20260505033732 | 52 | 201 | 4.0 | 4.0 | 0.04 | 0.00 | 0.72 | 96 | 1011.0 |
| 20260505033718 | 52 | 72 | 4.0 | 4.0 | 0.05 | 0.00 | 0.72 | 96 | 1011.0 |
| 20260505033145 | 51 | 126 | 7.0 | 8.0 | 0.14 | 0.00 | 0.71 | 96 | 1011.0 |
| 20260505032636 | 51 | 174 | 3.0 | 3.0 | 0.02 | 0.00 | 0.69 | 96 | 1011.0 |
| 20260505032144 | 51 | 198 | 4.0 | 4.0 | 0.02 | 0.00 | 0.68 | 96 | 1011.0 |
| 20260505031639 | 51 | 216 | 3.0 | 3.0 | 0.00 | 0.00 | 0.67 | 96 | 1011.0 |
| 20260505031122 | 51 | 168 | 3.0 | 3.0 | 0.07 | 0.00 | 0.67 | 96 | 1011.0 |
| 20260505030545 | 52 | 144 | 3.0 | 3.0 | 0.13 | 0.00 | 0.66 | 96 | 1011.0 |
| 20260505030010 | 51 | 191 | 3.0 | 3.0 | 0.05 | 0.00 | 0.64 | 95 | 1011.0 |
| 20260505025424 | 52 | 36 | 4.0 | 4.0 | 0.10 | 0.00 | 0.63 | 95 | 1011.0 |
| 20260505024918 | 51 | 90 | 7.0 | 7.0 | 0.05 | 0.00 | 0.61 | 95 | 1012.0 |
| 20260505024414 | 51 | 84 | 5.0 | 5.0 | 0.19 | 0.00 | 0.60 | 95 | 1012.0 |
| 20260505023804 | 51 | 228 | 7.0 | 8.0 | 0.19 | 0.00 | 0.58 | 95 | 1012.0 |
| 20260505023101 | 51 | 112 | 4.0 | 4.0 | 0.15 | 0.00 | 0.55 | 95 | 1012.0 |
| 20260505022558 | 51 | 78 | 4.0 | 4.0 | 0.08 | 0.00 | 0.53 | 95 | 1012.0 |
| 20260505022107 | 52 | 88 | 3.0 | 3.0 | 0.13 | 0.00 | 0.52 | 95 | 1012.0 |
| 20260505021554 | 52 | 174 | 4.0 | 4.0 | 0.13 | 0.00 | 0.50 | 95 | 1012.0 |
| 20260505021058 | 52 | 168 | 4.0 | 4.0 | 0.06 | 0.00 | 0.48 | 95 | 1012.0 |
| 20260505020544 | 51 | 126 | 3.0 | 3.0 | 0.24 | 0.00 | 0.47 | 95 | 1012.0 |
| 20260505020015 | 52 | 231 | 3.0 | 3.0 | 0.17 | 0.00 | 0.45 | 95 | 1012.0 |
| 20260505015918 | 52 | 102 | 3.0 | 3.0 | 0.13 | 0.00 | 0.44 | 95 | 1012.0 |
| 20260505015428 | 52 | 180 | 3.0 | 3.0 | 0.14 | 0.00 | 0.42 | 95 | 1012.0 |
| 20260505014931 | 52 | 95 | 3.0 | 3.0 | 0.21 | 0.00 | 0.40 | 95 | 1012.0 |
| 20260505014414 | 52 | 12 | 3.0 | 3.0 | 0.35 | 0.00 | 0.38 | 95 | 1012.0 |
| 20260505013806 | 52 | 36 | 4.0 | 4.0 | 0.12 | 0.00 | 0.34 | 95 | 1012.0 |
| 20260505013054 | 52 | 210 | 4.0 | 4.0 | 0.17 | 0.00 | 0.32 | 95 | 1012.0 |
| 20260505012554 | 52 | 236 | 3.0 | 3.0 | 0.24 | 0.00 | 0.29 | 95 | 1012.0 |
| 20260505012059 | 52 | 78 | 3.0 | 3.0 | 0.11 | 0.00 | 0.27 | 95 | 1012.0 |
| 20260505011834 | 52 | 84 | 4.0 | 4.0 | 0.05 | 0.00 | 0.26 | 95 | 1012.0 |
| 20260505011147 | 52 | 150 | 3.0 | 3.0 | 0.01 | 0.00 | 0.24 | 95 | 1012.0 |
| 20260505005845 | 52 | 174 | 4.0 | 4.0 | 0.01 | 0.00 | 0.22 | 95 | 1012.0 |
| 20260505005136 | 51 | 95 | 3.0 | 3.0 | 0.00 | 0.00 | 0.21 | 94 | 1012.0 |
| 20260505004343 | 51 | 192 | 3.0 | 3.0 | 0.00 | 0.00 | 0.20 | 94 | 1012.0 |
| 20260505003850 | 51 | 96 | 3.0 | 3.0 | 0.05 | 0.00 | 0.20 | 94 | 1012.0 |
| 20260505003128 | 52 | 96 | 3.0 | 3.0 | 0.01 | 0.00 | 0.19 | 94 | 1012.0 |
| 20260505002231 | 52 | 90 | 3.0 | 3.0 | 0.08 | 0.00 | 0.18 | 94 | 1012.0 |
| 20260505001728 | 52 | 186 | 3.0 | 3.0 | 0.04 | 0.00 | 0.17 | 94 | 1012.0 |
| 20260505001213 | 52 | 84 | 4.0 | 4.0 | 0.05 | 0.00 | 0.16 | 94 | 1012.0 |
| 20260505000614 | 52 | 164 | 3.0 | 3.0 | 0.02 | 0.00 | 0.15 | 94 | 1012.0 |
| 20260505000120 | 52 | 78 | 3.0 | 3.0 | 0.00 | 0.00 | 0.14 | 94 | 1012.0 |
| 20260504235554 | 52 | 89 | 4.0 | 4.0 | 0.00 | 0.00 | 0.14 | 94 | 1012.0 |
| 20260504235003 | 53 | 144 | 6.0 | 7.0 | 0.00 | 0.00 | 0.13 | 94 | 1012.0 |
| 20260504234503 | 53 | 114 | 3.0 | 3.0 | 0.00 | 0.00 | 0.13 | 94 | 1012.0 |
| 20260504233852 | 53 | 100 | 4.0 | 4.0 | 0.00 | 0.00 | 0.13 | 94 | 1013.0 |
| 20260504232828 | 53 | 150 | 4.0 | 4.0 | 0.00 | 0.00 | 0.12 | 94 | 1013.0 |
| 20260504232315 | 53 | 204 | 4.0 | 4.0 | 0.05 | 0.00 | 0.12 | 94 | 1013.0 |
| 20260504231748 | 54 | 156 | 3.0 | 3.0 | 0.04 | 0.00 | 0.11 | 94 | 1013.0 |
| 20260504231219 | 54 | 120 | 3.0 | 3.0 | 0.07 | 0.00 | 0.10 | 94 | 1013.0 |
| 20260504230657 | 54 | 118 | 4.0 | 4.0 | 0.08 | 0.00 | 0.09 | 94 | 1013.0 |
| 20260504230157 | 54 | 114 | 3.0 | 3.0 | 0.01 | 0.00 | 0.08 | 94 | 1013.0 |
| 20260504224533 | 54 | 262 | 4.0 | 4.0 | 0.00 | 0.00 | 0.06 | 94 | 1013.0 |
| 20260504223601 | 54 | 144 | 3.0 | 3.0 | 0.07 | 0.00 | 0.06 | 94 | 1013.0 |
| 20260504223031 | 54 | 180 | 3.0 | 3.0 | 0.04 | 0.00 | 0.04 | 94 | 1013.0 |
| 20260504221720 | 54 | 114 | 3.0 | 3.0 | 0.03 | 0.00 | 0.02 | 93 | 1013.0 |
| 20260504214205 | 54 | 138 | 3.0 | 3.0 | 0.07 | 0.00 | 0.06 | 93 | 1013.0 |
| 20260504212516 | 55 | 108 | 4.0 | 4.0 | 0.00 | 0.00 | 0.04 | 93 | 1013.0 |
| 20260504210409 | 55 | 150 | 3.0 | 3.0 | 0.00 | 0.00 | 0.03 | 92 | 1013.0 |
| 20260504205612 | 55 | 210 | 3.0 | 3.0 | 0.00 | 0.00 | 0.03 | 92 | 1013.0 |
| 20260504204740 | 55 | 83 | 3.0 | 3.0 | 0.00 | 0.00 | 0.02 | 92 | 1013.0 |
| 20260504203900 | 55 | 153 | 4.0 | 4.0 | 0.00 | 0.00 | 0.02 | 92 | 1013.0 |
| 20260504203247 | 55 | 256 | 3.0 | 3.0 | 0.00 | 0.00 | 0.02 | 92 | 1013.0 |
| 20260504200858 | 55 | 144 | 4.0 | 4.0 | 0.00 | 0.00 | 0.01 | 91 | 1013.0 |
| 20260504195506 | 55 | 186 | 4.0 | 4.0 | 0.00 | 0.00 | 0.01 | 91 | 1013.0 |
| 20260504195003 | 56 | 159 | 4.0 | 4.0 | 0.00 | 0.00 | 0.01 | 91 | 1013.0 |
| 20260504194328 | 56 | 150 | 3.0 | 3.0 | 0.00 | 0.00 | 0.01 | 91 | 1013.0 |
| 20260504192419 | 56 | 281 | 3.0 | 3.0 | 0.00 | 0.00 | 0.01 | 90 | 1013.0 |
| 20260504191749 | 56 | 56 | 3.0 | 3.0 | 0.00 | 0.00 | 0.00 | 90 | 1012.0 |
| 20260504190905 | 57 | 241 | 3.0 | 3.0 | 0.00 | 0.00 | 0.00 | 89 | 1012.0 |
| 20260504190412 | 57 | 234 | 3.0 | 3.0 | 0.00 | 0.00 | 0.00 | 89 | 1012.0 |
| 20260504185758 | 57 | 96 | 3.0 | 3.0 | 0.00 | 0.00 | 0.00 | 88 | 1012.0 |
| 20260504185251 | 57 | 317 | 5.0 | 5.0 | 0.00 | 0.00 | 0.00 | 88 | 1012.0 |
| 20260504184732 | 57 | 174 | 3.0 | 3.0 | 0.00 | 0.00 | 0.00 | 88 | 1012.0 |
| 20260504184228 | 57 | 350 | 5.0 | 5.0 | 0.00 | 0.00 | 0.00 | 88 | 1012.0 |
| 20260504183730 | 57 | 244 | 5.0 | 5.0 | 0.00 | 0.00 | 0.00 | 88 | 1012.0 |
| 20260504183030 | 57 | 245 | 7.0 | 8.0 | 0.00 | 0.00 | 0.00 | 88 | 1012.0 |
| 20260504182455 | 57 | 156 | 3.0 | 3.0 | 0.00 | 0.00 | 0.00 | 88 | 1012.0 |
| 20260504181959 | 57 | 102 | 4.0 | 4.0 | 0.00 | 0.00 | 0.00 | 87 | 1012.0 |
| 20260504181504 | 57 | 252 | 6.0 | 6.0 | 0.00 | 0.00 | 0.00 | 87 | 1012.0 |
| 20260504180951 | 57 | 348 | 3.0 | 3.0 | 0.00 | 0.00 | 0.00 | 87 | 1012.0 |
| 20260504180328 | 57 | 216 | 6.0 | 6.0 | 0.00 | 0.00 | 0.00 | 86 | 1012.0 |
| 20260504175859 | 58 | 277 | 3.0 | 3.0 | 0.00 | 0.00 | 0.00 | 85 | 1012.0 |
| 20260504175405 | 58 | 120 | 3.0 | 3.0 | 0.00 | 0.00 | 0.00 | 84 | 1012.0 |
| 20260504174912 | 58 | 147 | 9.0 | 9.0 | 0.00 | 0.00 | 0.00 | 84 | 1012.0 |
| 20260504174415 | 58 | 126 | 4.0 | 4.0 | 0.00 | 0.00 | 0.00 | 83 | 1012.0 |
| 20260504173845 | 59 | 336 | 3.0 | 3.0 | 0.00 | 0.00 | 0.00 | 82 | 1012.0 |
| 20260504173353 | 59 | 227 | 4.0 | 4.0 | 0.00 | 0.00 | 0.00 | 83 | 1012.0 |
| 20260504172851 | 59 | 102 | 6.0 | 6.0 | 0.00 | 0.00 | 0.00 | 82 | 1012.0 |
| 20260504172348 | 59 | 245 | 3.0 | 3.0 | 0.00 | 0.00 | 0.00 | 82 | 1012.0 |
| 20260504171839 | 59 | 136 | 6.0 | 6.0 | 0.00 | 0.00 | 0.00 | 80 | 1012.0 |
| 20260504171343 | 60 | 18 | 4.0 | 4.0 | 0.00 | 0.00 | 0.00 | 80 | 1012.0 |
| 20260504170633 | 60 | 281 | 4.0 | 4.0 | 0.00 | 0.00 | 0.00 | 78 | 1012.0 |
| 20260504170134 | 61 | 107 | 3.0 | 3.0 | 0.00 | 0.00 | 0.00 | 76 | 1012.0 |
| 20260504150958 | 62 | 120 | 3.0 | 3.0 | 0.00 | 0.00 | 0.00 | 73 | 1012.0 |
| 20260504150455 | 62 | 114 | 4.0 | 4.0 | 0.00 | 0.00 | 0.00 | 75 | 1012.0 |
| 20260504140842 | 61 | 132 | 4.0 | 4.0 | 0.00 | 0.00 | 0.00 | 72 | 1012.0 |
| 20260504140203 | 61 | 164 | 6.0 | 7.0 | 0.00 | 0.00 | 0.00 | 74 | 1012.0 |
| 20260504130518 | 62 | 125 | 3.0 | 3.0 | 0.00 | 0.00 | 0.00 | 74 | 1012.0 |
| 20260504110324 | 61 | 222 | 4.0 | 4.0 | 0.00 | 0.00 | 0.00 | 73 | 1013.0 |
| 20260504100533 | 59 | 354 | 3.0 | 3.0 | 0.00 | 0.00 | 0.00 | 77 | 1013.0 |
| 20260504081642 | 58 | 72 | 4.0 | 4.0 | 0.00 | 0.00 | 0.00 | 78 | 1013.0 |
| 20260504081144 | 57 | 95 | 6.0 | 6.0 | 0.00 | 0.00 | 0.00 | 81 | 1013.0 |
| 20260504080546 | 57 | 67 | 4.0 | 4.0 | 0.00 | 0.00 | 0.00 | 80 | 1013.0 |